Powrót do katalogu

STARLINK-37530

AktywnyŁącznośćSSO
NORAD 69131·PAYLOAD·🇺🇸 United States

Wystrzelony May 20, 2026 z Vandenberg Space Force Base

Loading…

Następne Przeloty (najbliższe 24 godziny)

TLE

ŚwieżeSource: CelesTrak SupGP

Epoka: Sep 15, 2026, 02:51 UTC

1 69131C 26110H   26258.11923611 -.00035863  00000+0 -11130-2 0  2589
2 69131  97.2855  93.2287 0001544  98.5523 123.0101 15.33463770    13

Śledź STARLINK-37530 w czasie rzeczywistym z AllMySat

Download on the App Store